Pecs, Hungary

6:13 AM CEST on April 24, 2017 (GMT +0200)
Pecs

Weather History for LHPP - January, 2013

Change the Weather History Date:

Wednesday, January 23, 2013

  Actual Average Record
Temperature  
Mean Temperature 36 °F -  
Max Temperature 41 °F 40 °F - ()
Min Temperature 31 °F 28 °F - ()
Degree Days  
Heating Degree Days 29    
Moisture  
Dew Point 32 °F    
Average Humidity 92    
Maximum Humidity 100    
Minimum Humidity 76    
Precipitation  
Precipitation 0.00 in 0.04 in - ()
Sea Level Pressure  
Sea Level Pressure 29.80 in    
Wind  
Wind Speed 4 mph ()    
Max Wind Speed 7 mph    
Max Gust Speed -    
Visibility 4.2 miles    
Events Snow    
T = Trace of Precipitation, MM = Missing Value Source: Averaged Metar Reports

Daily Weather History Graph

Daily Weather History Graph

Search for Another Location

Airport or City:

Trip Planner

Search our weather history database for the weather conditions in past years. The results will help you decide how hot, cold, wet, or windy it might be!

Date:

Astronomy

Jan. 23, 2013 Rise Set
Actual Time 7:18 AM CET 4:39 PM CET
Civil Twilight 6:46 AM CET 5:12 PM CET
Nautical Twilight 6:09 AM CET 5:48 PM CET
Astronomical Twilight 5:34 AM CET 6:24 PM CET
Moon 1:32 PM CET (1/23) 4:18 AM CET (1/23)
Length of Visible Light 10h 25m
Length of Day
9h 20m
Waxing Gibbous, 87% of the Moon is Illuminated
Jan 23
Waxing Gibbous
Jan 27
Full
Feb 3
Last Quarter
Feb 10
New
Feb 17
First Quarter

Hourly Weather History & Observations

Time (CET) Temp. Windchill Dew Point Humidity Pressure Visibility Wind Dir Wind Speed Gust Speed Precip Events Conditions
12:45 AM 32.0 °F 26.4 °F 30.2 °F 93% 29.74 in 5.0 mi WNW 5.8 mph - N/A   Mostly Cloudy
1:00 AM 32 °F - 30 °F 88% 29.77 in 5 mi WNW 4.5 mph - -   Partly Cloudy
1:45 AM 32.0 °F 26.4 °F 30.2 °F 93% 29.74 in 5.0 mi NW 5.8 mph - N/A Snow Light Snow
2:45 AM 32.0 °F 28.7 °F 30.2 °F 93% 29.74 in 5.0 mi WSW 3.5 mph - N/A Snow Light Snow
3:45 AM 32.0 °F 25.6 °F 30.2 °F 93% 29.74 in 5.0 mi West 6.9 mph - N/A Snow Light Snow
4:45 AM 32.0 °F 27.5 °F 30.2 °F 93% 29.77 in 5.0 mi West 4.6 mph - N/A   Overcast
5:15 AM 32.0 °F 27.5 °F 30.2 °F 93% 29.77 in 5.0 mi SW 4.6 mph - N/A   Overcast
5:45 AM 32.0 °F 26.4 °F 30.2 °F 93% 29.77 in 5.0 mi West 5.8 mph - N/A   Overcast
6:00 AM - - - N/A% - 3.7 mi Variable 3.5 mph - N/A   Overcast
6:15 AM 32.0 °F - 30.2 °F 93% 29.77 in 5.0 mi WSW 2.3 mph - N/A   Overcast
6:45 AM 32.0 °F 28.7 °F 30.2 °F 93% 29.77 in 5.0 mi SW 3.5 mph - N/A   Overcast
7:00 AM 32 °F - 31 °F 93% 29.82 in 5 mi SW 4.5 mph - -   Partly Cloudy
7:11 AM 32.0 °F 27.5 °F 30.2 °F 93% 29.83 in 1.6 mi SSW 4.6 mph - N/A   Overcast
7:15 AM 32.0 °F 27.5 °F 30.2 °F 93% 29.80 in 1.6 mi SSW 4.6 mph - N/A   Overcast
7:19 AM 32.0 °F 28.7 °F 32.0 °F 100% 29.83 in 0.9 mi SW 3.5 mph - N/A   Overcast
7:45 AM 32.0 °F - 32.0 °F 100% 29.80 in 0.7 mi SW 2.3 mph - N/A   Overcast
7:55 AM 32.0 °F - 32.0 °F 100% 29.83 in 1.2 mi West 2.3 mph - N/A   Overcast
8:06 AM 32.0 °F 28.7 °F 32.0 °F 100% 29.83 in 2.2 mi NW 3.5 mph - N/A   Overcast
8:15 AM 32.0 °F 28.7 °F 32.0 °F 100% 29.80 in 2.5 mi NW 3.5 mph - N/A   Overcast
8:29 AM 32.0 °F - 32.0 °F 100% 29.83 in 2.2 mi Calm Calm - N/A   Mostly Cloudy
8:45 AM 32.0 °F - 32.0 °F 100% 29.80 in 2.2 mi Calm Calm - N/A   Mostly Cloudy
9:00 AM - - - N/A% - 4.3 mi Variable 3.5 mph - N/A   Overcast
9:15 AM 33.8 °F - 32.0 °F 93% 29.80 in 2.2 mi Calm Calm - N/A   Mostly Cloudy
9:45 AM 33.8 °F - 32.0 °F 93% 29.80 in 2.8 mi Calm Calm - N/A   Mostly Cloudy
10:15 AM 35.6 °F - 32.0 °F 87% 29.83 in 2.8 mi NE 1.2 mph - N/A   Mostly Cloudy
10:45 AM 35.6 °F - 33.8 °F 93% 29.83 in 6.2 mi ENE 2.3 mph - N/A   Mostly Cloudy
11:15 AM 37.4 °F - 33.8 °F 87% 29.83 in - SE 2.3 mph - N/A   Clear
11:45 AM 37.4 °F 34.9 °F 33.8 °F 87% 29.83 in 6.2 mi ESE 3.5 mph - N/A   Overcast
12:00 PM - - - N/A% - 6.2 mi Variable 3.5 mph - N/A   Mostly Cloudy
12:15 PM 37.4 °F 34.9 °F 33.8 °F 87% 29.80 in 6.2 mi SE 3.5 mph - N/A   Mostly Cloudy
1:15 PM 39.2 °F 35.9 °F 33.8 °F 81% 29.80 in 6.2 mi SE 4.6 mph - N/A   Mostly Cloudy
1:45 PM 39.2 °F 35.9 °F 33.8 °F 81% 29.80 in 6.2 mi SE 4.6 mph - N/A   Mostly Cloudy
2:15 PM 41.0 °F 37.1 °F 33.8 °F 76% 29.80 in 6.2 mi SE 5.8 mph - N/A   Mostly Cloudy
2:45 PM 41.0 °F 37.1 °F 35.6 °F 81% 29.80 in - ESE 5.8 mph - N/A   Clear
3:00 PM - - - N/A% - 2.5 mi ESE 4.6 mph - N/A   Overcast
3:15 PM 41.0 °F 36.4 °F 35.6 °F 81% 29.80 in - SSE 6.9 mph - N/A   Clear
3:45 PM 41.0 °F 37.1 °F 35.6 °F 81% 29.80 in - SSE 5.8 mph - N/A   Clear
4:15 PM 39.2 °F 34.2 °F 35.6 °F 87% 29.80 in - SE 6.9 mph - N/A   Clear
4:45 PM 39.2 °F 35.0 °F 35.6 °F 87% 29.80 in - SE 5.8 mph - N/A   Clear
5:15 PM 39.2 °F 35.9 °F 35.6 °F 87% 29.80 in - SE 4.6 mph - N/A   Clear
5:45 PM 37.4 °F 33.8 °F 33.8 °F 87% 29.80 in - SE 4.6 mph - N/A   Clear
6:15 PM 35.6 °F 32.8 °F 33.8 °F 93% 29.80 in - East 3.5 mph - N/A   Clear
6:45 PM 35.6 °F 32.8 °F 33.8 °F 93% 29.80 in - SE 3.5 mph - N/A   Clear
7:00 PM 35 °F - 33 °F 90% 29.84 in 12 mi SE 4.5 mph - -   Partly Cloudy
7:15 PM 35.6 °F 32.8 °F 33.8 °F 93% 29.80 in - SSE 3.5 mph - N/A   Clear
7:45 PM 33.8 °F - 33.8 °F 100% 29.80 in - East 1.2 mph - N/A   Clear
8:15 PM 33.8 °F 30.8 °F 32.0 °F 93% 29.80 in - ENE 3.5 mph - N/A   Clear
8:45 PM 33.8 °F 29.6 °F 33.8 °F 100% 29.80 in - ENE 4.6 mph - N/A   Clear
9:45 PM 32.0 °F 27.5 °F 32.0 °F 100% 29.80 in - ENE 4.6 mph - N/A   Clear
10:45 PM 32.0 °F 27.5 °F 30.2 °F 93% 29.80 in - ENE 4.6 mph - N/A   Clear
11:45 PM 32.0 °F 26.4 °F 32.0 °F 100% 29.80 in 3.7 mi ENE 5.8 mph - N/A   Scattered Clouds